Volver al catálogo

SCOUT G-1 DEB

ActivoPO
NORAD 21532·DEBRIS·🇺🇸 United States

Lanzado Jun 29, 1991 desde Vandenberg Space Force Base

Loading…

Próximos Pases (próximas 24 horas)

TLE

ActualizadoSource: Space-Track

Época: Sep 14, 2026, 02:52 UTC

1 21532U 91045D   26257.11970089  .00000653  00000-0  21129-3 0  9991
2 21532  89.5732 194.6921 0062941 343.5807  78.4525 14.37039916835889

Sigue SCOUT G-1 DEB en tiempo real con AllMySat

Download on the App Store